Regional Weather Roundup
Issued by NWS Bismarck, ND

Home | Current Version | Previous Version | Text Only | Print | Product List | Glossary On
Versions: 1 2 3 4 5 6 7 8 9 10 11 12 13 14 15 16 17 18 19 20 21 22 23 24 25 26 27 28 29 30 31 32 33 34 35 36 37 38 39 40 41 42 43 44 45 46 47 48 49 50
000
ASUS43 KBIS 010320
RWRBIS

NWR BROADCAST TEXT
NATIONAL WEATHER SERVICE BISMARCK ND
1000 PM CDT TUE SEP 30 2014

NOTE: "FAIR" INDICATES FEW OR NO CLOUDS BELOW 12,000 FEET WITH NO
SIGNIFICANT WEATHER AND/OR OBSTRUCTIONS TO VISIBILITY.


CITY           SKY/WX    TMP DP  RH WIND       PRES   REMARKS
WILLISTON      CLOUDY    51  49  92 NE3       29.50F
MINOT          LGT RAIN  51  49  92 NE8       29.46F
MINOT AFB      LGT RAIN  52  52 100 E9        29.45F
BISMARCK       CLOUDY    55  55 100 W9        29.39R
DICKINSON      CLOUDY    51  49  92 NW12      29.48S
GARRISON         N/A     52  50  93 NE6       29.42F
HETTINGER ARPT CLOUDY    52  50  93 W15       29.54R
JAMESTOWN      LGT RAIN  57  54  89 SE23G37   29.47F
BEACH          LGT RAIN  50  50 100 W12       29.54S
CARRINGTON     CLOUDY    54  54 100 SE24G38   29.44F
CROSBY           N/A    N/A N/A N/A MISG        N/A
HARVEY         CLOUDY    52  52 100 E21G29    29.42F FOG
HAZEN          LGT RAIN  52  50  93 NW7       29.43S
LINTON         CLOUDY    57  57 100 SW28G33   29.44R
MANDAN         CLOUDY    54  54 100 W7        29.39R FOG
OAKES            N/A     63  63 100 S20G25    29.54S
RUGBY          CLOUDY    52  52 100 E16       29.46F
STANLEY        FOG       48  48 100 NE5       29.49F VSB 3/4
TIOGA          FAIR      48  48 100 CALM      29.53F FOG
WATFORD CITY   CLOUDY    50  50 100 N6        29.48S FOG
$$

CITY           SKY/WX    TMP DP  RH WIND       PRES   REMARKS
GRAND FORKS    CLOUDY    57  47  69 SE21G32   29.60F
GRAND FORKS AF CLOUDY    55  50  82 SE14G24   29.58F
DEVILS LAKE    CLOUDY    55  46  71 SE22G30   29.48F
FARGO          LGT RAIN  58  50  75 SE23G35   29.61F
CANDO          CLOUDY    54  50  87 SE15G25   29.51F
CAVALIER       CLOUDY    55  46  71 SE8       29.59F
GRAFTON        CLOUDY    55  48  76 SE17G23   29.59F
GWINNER          N/A     57  57 100 SE21G26   29.58S
LANGDON        CLOUDY    54  46  76 SE21G26   29.56F
ROLLA          MOCLDY    50  50 100 E13       29.54F
WALHALLA         N/A     54  50  87 SE14      29.60F
$$

CITY           SKY/WX    TMP DP  RH WIND       PRES   REMARKS
ABERDEEN       CLOUDY    67  53  61 S13G22    29.57R
MOBRIDGE       CLOUDY    61  52  72 SW18G29   29.49R
BUFFALO          N/A     54  51  90 W15       29.54R
RAPID CITY     MOCLDY    54  44  69 W3        29.68R
GLASGOW        CLOUDY    55  51  86 NW12      29.58R
SIDNEY         CLOUDY    52  50  93 CALM      29.53S
WOLF POINT     LGT RAIN  56  53  90 W10       29.54R
GLENDIVE       CLOUDY    54  52  94 SW5       29.56S
MILES CITY     CLOUDY    59  47  64 W17       29.61R
BAKER          LGT RAIN  53  52  96 W16       29.58R
$$

CITY           SKY/WX    TMP DP  RH WIND       PRES   REMARKS
BILLINGS       CLOUDY    56  39  53 NW16      29.76R
GREAT FALLS    CLOUDY    47  45  93 N12G23    29.86R
REGINA         LGT RAIN  50  48  93 SE8       29.52F
ESTEVAN        DRIZZLE   48  48 100 E6        29.52F FOG
$$




USA.gov is the U.S. government's official web portal to all federal, state and local government web resources and services.